weather.gov     
National Weather Service

Terminal Aerodrome Forecast
NWS Homepage
This page is being discontinued on March 12, 2014.
The same data is available at this site. Please update your bookmarks.
Thank you, and we apologize for the inconvenience.
Please send an email to SR-SRH.Webmaster@noaa.gov with any concerns.


Current Version
Previous Version:    01  02  03  04  05  06  07  08  09  10  11  12  13  14  15  16  17  18  19  20  21  22  23  24  25  
[Printable]
496
FTUS46 KLOX 290500
TAFSBA
TAF
KSBA 290533Z 2906/3006 VRB03KT 3SM BR SCT002
     FM290700 VRB03KT 3SM BR OVC003
     FM291500 VRB03KT 5SM BR OVC008
     FM291800 VRB03KT P6SM SCT010
     FM292100 21007KT P6SM SCT200
     FM300000 16006KT P6SM OVC020=


U.S. Dept. of Commerce
NOAA National Weather Service
1325 East West Highway
Silver Spring, MD 20910
E-mail: w-nws.webmaster@noaa.gov
Page last modified: May 16, 2007
NATIONAL WEATHER SERVICE: for Safety, for Work, for Fun - FOR LIFE